{"data":{"norad_id":52866,"intl_designator":"2022-062AN","name":"STARLINK-4272","alt_names":[],"object_type":"PAYLOAD","status":"ACTIVE","operator":null,"country":"US","launch_date":"2022-06-17","launch_site_code":"AFETR","launch_vehicle":null,"mission":null,"orbit_class":"UNKNOWN","rcs_meters":null,"size_class":null,"mass_kg":null,"dimensions":null,"purposes":["comms"],"wikipedia_slug":null,"has_3d_model":false,"image_url":null,"decayed_at":null,"tle_current":{"epoch":"2026-09-19T22:01:45.530112Z","epoch_age_seconds":119206,"freshness":"FRESH","line1":"1 52866U 22062AN  26262.91788808  .00000560  00000+0  28368-4 0  9997","line2":"2 52866  53.1595 220.7379 0001098  88.0529 272.0599 15.33548389235404","mean_motion":15.33548389,"eccentricity":0.0001098,"inclination_deg":53.1595,"raan_deg":220.7379,"arg_perigee_deg":88.0529,"mean_anomaly_deg":272.0599,"bstar":2.8368e-5,"rev_number":23540,"period_min":93.899873673957,"perigee_km":464.4841765277,"apogee_km":465.98698114601,"semimajor_km":6843.3725788369,"source":"CELESTRAK","updated_at":"2026-09-20T09:00:40.135432Z"}}}